Weather Roundup
Issued by NWS

Home | Current Version | Previous Version | Graphics & Text | Print | Product List | Glossary Off
Versions: 1 2 3 4 5 6 7 8 9 10 11 12 13 14 15 16 17 18 19 20 21 22 23 24 25 26 27 28 29 30 31 32 33 34 35 36 37 38 39 40 41 42 43 44 45 46 47 48 49 50

163
NZUS93 KARX 241159
HRRWXR

CURRENT HOURLY OBSERVATIONS ACROSS
MUCH OF THE UPPER MISSISSIPPI VALLEY
NATIONAL WEATHER SERVICE LA CROSSE WI
700 AM CDT FRI MAR 24 2017


...SOUTHEAST MINNESOTA...


CITY           SKY/WX    TMP DP  RH WIND       PRES   REMARKS
ROCHESTER      CLOUDY    37  37 100 NE10      29.82R FOG     WCI  30
ROCHESTER/MAYO CLOUDY    38  38 100 NE5       29.82F WCI  35
WINONA         CLOUDY    37  37 100 CALM      29.87R
AUSTIN         CLOUDY    39  37  93 N6        29.82R FOG     WCI  35
ALBERT LEA     MIX PCPN  37  37 100 E3        29.83R
DODGE CENTER   RAIN      37  36  93 N12       29.81R WCI  30
PRESTON        CLOUDY    38  37  94 N8        29.81R FOG     WCI  32
OWATONNA       CLOUDY    37  36  93 N8        29.86R FOG     WCI  31
FARIBAULT      CLOUDY    37  37 100 N6        29.87R FOG     WCI  33
$$

...ELSEWHERE IN MINNESOTA...


CITY           SKY/WX    TMP DP  RH WIND       PRES   REMARKS
MINNEAPOLIS    CLOUDY    38  36  92 N9        29.89R FOG     WCI  31
INTNL FALLS    CLOUDY    33  31  92 NW5       29.97R WCI  29
DULUTH         CLOUDY    33  32  96 N6        29.92R FOG     WCI  28
RED WING       CLOUDY    39  37  93 N3        29.86S FOG
REDWOOD FALLS  CLOUDY    37  34  89 N8        29.90R FOG     WCI  31
MANKATO        LGT RAIN  37  36  96 N12       29.87S FOG     WCI  29
WORTHINGTON    FOG       36  35  96 N14       29.87R VSB 3/4 WCI  27
FAIRMONT       CLOUDY    38  37  97 N9        29.86R FOG     WCI  31
$$

...SOUTHWEST WISCONSIN...


CITY           SKY/WX    TMP DP  RH WIND       PRES   REMARKS
LA CROSSE      CLOUDY    41  39  93 NW9       29.84R FOG
PRAIRIE DU CHI CLOUDY    40  37  87 CALM      29.83S
BOSCOBEL       CLOUDY    38  36  92 CALM      29.85S FOG
LONE ROCK      NOT AVBL
PLATTEVILLE    CLOUDY    45  43  93 N3        29.84R
FORT MC COY    CLOUDY    39  38  96 CALM      29.85R
MAUSTON-NEW LI CLOUDY    39  37  95 SE3       29.83F FOG
VIROQUA        CLOUDY    41  39  94 SE9       29.81F
WIS DELLS      PTCLDY    38  35  89 CALM      29.86S
$$

...ELSEWHERE IN WISCONSIN...


CITY           SKY/WX    TMP DP  RH WIND       PRES   REMARKS
MILWAUKEE      MOCLDY    48  41  76 CALM      29.90R
MADISON        CLOUDY    41  37  86 NE3       29.87R
GREEN BAY      CLOUDY    37  37 100 N5        29.89S FOG     WCI  33
EAU CLAIRE     RAIN      38  38 100 CALM      29.89R FOG
BLACK RVR FLS  CLOUDY    39  39 100 NE3       29.84S FOG
MEDFORD        LGT RAIN  34  33  98 N6        29.83F WCI  29
WAUSAU         LGT RAIN  34  34 100 NE5       29.86F FOG     WCI  30
WIS RAPIDS     CLOUDY    38  38 100 E3        29.87S FOG
MARSHFIELD     CLOUDY    37  37 100 CALM      29.85R FOG
RICE LAKE      CLOUDY    35  35  99 CALM      29.90R FOG
$$

...NORTHEAST IOWA...


CITY           SKY/WX    TMP DP  RH WIND       PRES   REMARKS
WATERLOO       CLOUDY    40  38  93 E7        29.79R
DUBUQUE        CLOUDY    48  44  86 S13       29.82R
DECORAH        CLOUDY    39  37  93 SE7       29.79S WCI  34
MASON CITY     CLOUDY    39  37  92 N14       29.82R FOG     WCI  31
CHARLES CITY   PTCLDY    39  39 100 SE10      29.77F WCI  32
OELWEIN        MOCLDY    41  41 100 SE7       29.80S
$$

...ELSEWHERE IN IOWA...


CITY           SKY/WX    TMP DP  RH WIND       PRES   REMARKS
DES MOINES     MOCLDY    58  46  64 W3        29.77R
IOWA CITY      MOCLDY    46  43  89 S5        29.84R
FORT DODGE     CLOUDY    45  39  81 N12       29.79R
MARSHALLTOWN   MOCLDY    44  41  89 SE7       29.77R
CEDAR RAPIDS   CLOUDY    52  48  86 S13       29.80R
$$

...NORTHERN ILLINOIS...


CITY           SKY/WX    TMP DP  RH WIND       PRES   REMARKS
CHICAGO-OHARE  CLOUDY    52  42  69 S13       29.91R
CHICAGO-MIDWAY CLOUDY    52  44  74 S16G23    29.94R
MOLINE         CLEAR     54  45  71 S10       29.85S
ROCKFORD       CLEAR     47  41  80 S10       29.89S
PEORIA         CLEAR     48  43  82 S12       29.95S
$$

NOTE: "FAIR" INDICATES FEW OR NO CLOUDS BELOW 12,000 FEET WITH NO
SIGNIFICANT WEATHER AND/OR OBSTRUCTIONS TO VISIBILITY. WIND
SPEEDS ARE IN MILES-PER-HOUR.




USA.gov is the U.S. government's official web portal to all federal, state and local government web resources and services.